Year,Month,Day,Hour,Minute,Value (Times are PST for windspeed in km/hr)
2009,11,17,00,00,6.80
2009,11,17,00,01,4.80
2009,11,17,00,02,4.80
2009,11,17,00,03,8.20
2009,11,17,00,04,3.20
2009,11,17,00,05,8.90
2009,11,17,00,06,10.50
2009,11,17,00,07,4.90
2009,11,17,00,08,5.10
2009,11,17,00,09,5.70
2009,11,17,00,10,4.60
2009,11,17,00,11,11.60
2009,11,17,00,12,7.60
2009,11,17,00,13,6.00
2009,11,17,00,14,7.90
2009,11,17,00,15,6.30
2009,11,17,00,16,6.70
2009,11,17,00,17,4.80
2009,11,17,00,18,6.60
2009,11,17,00,19,3.70
2009,11,17,00,20,6.00
2009,11,17,00,21,3.70
2009,11,17,00,22,4.50
2009,11,17,00,23,3.80
2009,11,17,00,24,6.10
2009,11,17,00,25,5.70
2009,11,17,00,26,1.70
2009,11,17,00,27,2.10
2009,11,17,00,28,2.90
2009,11,17,00,29,0.70
2009,11,17,00,30,2.30
2009,11,17,00,31,0.80
2009,11,17,00,32,1.20
2009,11,17,00,33,1.10
2009,11,17,00,34,0.50
2009,11,17,00,35,0.50
2009,11,17,00,36,0.00
2009,11,17,00,37,0.10
2009,11,17,00,38,0.60
2009,11,17,00,39,0.80
2009,11,17,00,40,0.00
2009,11,17,00,41,1.00
2009,11,17,00,42,1.10
2009,11,17,00,43,1.20
2009,11,17,00,44,1.40
2009,11,17,00,45,1.30
2009,11,17,00,46,1.60
2009,11,17,00,47,2.00
2009,11,17,00,48,0.70
2009,11,17,00,49,0.40
2009,11,17,00,50,1.20
2009,11,17,00,51,1.90
2009,11,17,00,52,1.80
2009,11,17,00,53,0.90
2009,11,17,00,54,0.50
2009,11,17,00,55,0.50
2009,11,17,00,56,0.00
2009,11,17,00,57,0.20
2009,11,17,00,58,0.10
2009,11,17,00,59,0.00
2009,11,17,01,00,0.10
2009,11,17,01,01,0.00
2009,11,17,01,02,0.00
2009,11,17,01,03,0.00
2009,11,17,01,04,0.00
2009,11,17,01,05,0.00
2009,11,17,01,06,0.20
2009,11,17,01,07,1.90
2009,11,17,01,08,2.90
2009,11,17,01,09,2.40
2009,11,17,01,10,1.40
2009,11,17,01,11,2.20
2009,11,17,01,12,3.10
2009,11,17,01,13,2.20
2009,11,17,01,14,1.40
2009,11,17,01,15,4.20
2009,11,17,01,16,3.30
2009,11,17,01,17,1.80
2009,11,17,01,18,1.10
2009,11,17,01,19,2.00
2009,11,17,01,20,2.00
2009,11,17,01,21,3.90
2009,11,17,01,22,4.00
2009,11,17,01,23,3.50
2009,11,17,01,24,4.40
2009,11,17,01,25,2.70
2009,11,17,01,26,3.40
2009,11,17,01,27,3.50
2009,11,17,01,28,2.20
2009,11,17,01,29,1.40
2009,11,17,01,30,3.30
2009,11,17,01,31,0.30
2009,11,17,01,32,1.00
2009,11,17,01,33,2.40
2009,11,17,01,34,2.10
2009,11,17,01,35,2.40
2009,11,17,01,36,1.60
2009,11,17,01,37,0.20
2009,11,17,01,38,0.90
2009,11,17,01,39,1.40
2009,11,17,01,40,1.40
2009,11,17,01,41,1.60
2009,11,17,01,42,1.50
2009,11,17,01,43,0.20
2009,11,17,01,44,0.00
2009,11,17,01,45,0.00
2009,11,17,01,46,0.40
2009,11,17,01,47,0.00
2009,11,17,01,48,0.00
2009,11,17,01,49,1.20
2009,11,17,01,50,0.40
2009,11,17,01,51,0.20
2009,11,17,01,52,0.00
2009,11,17,01,53,2.50
2009,11,17,01,54,4.50
2009,11,17,01,55,4.20
2009,11,17,01,56,3.60
2009,11,17,01,57,3.00
2009,11,17,01,58,1.20
2009,11,17,01,59,4.50
2009,11,17,02,00,3.30
2009,11,17,02,01,3.90
2009,11,17,02,02,5.10
2009,11,17,02,03,3.70
2009,11,17,02,04,1.00
2009,11,17,02,05,2.90
2009,11,17,02,06,3.70
2009,11,17,02,07,4.40
2009,11,17,02,08,3.10
2009,11,17,02,09,2.60
2009,11,17,02,10,2.10
2009,11,17,02,11,1.20
2009,11,17,02,12,2.30
2009,11,17,02,13,4.50
2009,11,17,02,14,3.20
2009,11,17,02,15,4.20
2009,11,17,02,16,1.30
2009,11,17,02,17,1.10
2009,11,17,02,18,1.00
2009,11,17,02,19,0.40
2009,11,17,02,20,1.30
2009,11,17,02,21,1.70
2009,11,17,02,22,2.70
2009,11,17,02,23,1.30
2009,11,17,02,24,1.20
2009,11,17,02,25,1.20
2009,11,17,02,26,0.10
2009,11,17,02,27,1.60
2009,11,17,02,28,2.60
2009,11,17,02,29,2.30
2009,11,17,02,30,0.10
2009,11,17,02,31,0.60
2009,11,17,02,32,1.50
2009,11,17,02,33,4.80
2009,11,17,02,34,4.10
2009,11,17,02,35,1.50
2009,11,17,02,36,1.30
2009,11,17,02,37,1.50
2009,11,17,02,38,0.40
2009,11,17,02,39,0.70
2009,11,17,02,40,1.40
2009,11,17,02,41,0.60
2009,11,17,02,42,0.00
2009,11,17,02,43,0.00
2009,11,17,02,44,0.80
2009,11,17,02,45,1.50
2009,11,17,02,46,0.60
2009,11,17,02,47,0.00
2009,11,17,02,48,0.50
2009,11,17,02,49,0.00
2009,11,17,02,50,0.00
2009,11,17,02,51,0.00
2009,11,17,02,52,0.20
2009,11,17,02,53,0.00
2009,11,17,02,54,0.60
2009,11,17,02,55,0.20
2009,11,17,02,56,0.30
2009,11,17,02,57,0.40
2009,11,17,02,58,1.90
2009,11,17,02,59,0.60
2009,11,17,03,00,0.60
2009,11,17,03,01,1.40
2009,11,17,03,02,0.60
2009,11,17,03,06,0.10
2009,11,17,03,07,1.60
2009,11,17,03,08,0.40
2009,11,17,03,09,1.40
2009,11,17,03,10,0.10
2009,11,17,03,11,2.00
2009,11,17,03,12,1.10
2009,11,17,03,13,0.20
2009,11,17,03,14,1.50
2009,11,17,03,15,0.90
2009,11,17,03,16,0.30
2009,11,17,03,17,0.70
2009,11,17,03,18,1.00
2009,11,17,03,19,1.70
2009,11,17,03,20,2.10
2009,11,17,03,21,2.50
2009,11,17,03,22,2.10
2009,11,17,03,23,2.30
2009,11,17,03,24,1.30
2009,11,17,03,25,5.80
2009,11,17,03,26,2.90
2009,11,17,03,27,4.60
2009,11,17,03,28,3.30
2009,11,17,03,29,8.10
2009,11,17,03,30,15.20
2009,11,17,03,31,9.20
2009,11,17,03,32,4.30
2009,11,17,03,33,8.90
2009,11,17,03,34,14.30
2009,11,17,03,35,10.80
2009,11,17,03,36,7.10
2009,11,17,03,37,8.00
2009,11,17,03,38,14.90
2009,11,17,03,39,11.70
2009,11,17,03,40,5.40
2009,11,17,03,41,5.80
2009,11,17,03,42,5.30
2009,11,17,03,43,2.10
2009,11,17,03,44,1.20
2009,11,17,03,45,1.60
2009,11,17,03,46,4.20
2009,11,17,03,47,7.10
2009,11,17,03,48,5.80
2009,11,17,03,49,0.80
2009,11,17,03,50,0.00
2009,11,17,03,51,0.20
2009,11,17,03,52,2.10
2009,11,17,03,53,4.50
2009,11,17,03,54,3.60
2009,11,17,03,55,5.60
2009,11,17,03,56,7.40
2009,11,17,03,57,8.90
2009,11,17,03,58,4.60
2009,11,17,03,59,5.60
2009,11,17,04,00,10.60
2009,11,17,04,01,15.60
2009,11,17,04,02,6.70
2009,11,17,04,03,6.20
2009,11,17,04,04,4.40
2009,11,17,04,05,3.90
2009,11,17,04,06,2.70
2009,11,17,04,07,6.50
2009,11,17,04,08,8.50
2009,11,17,04,09,3.70
2009,11,17,04,10,4.00
2009,11,17,04,11,4.70
2009,11,17,04,12,2.30
2009,11,17,04,13,4.00
2009,11,17,04,14,5.70
2009,11,17,04,15,6.70
2009,11,17,04,16,6.10
2009,11,17,04,17,6.80
2009,11,17,04,18,3.80
2009,11,17,04,19,6.00
2009,11,17,04,20,5.10
2009,11,17,04,21,6.00
2009,11,17,04,22,5.10
2009,11,17,04,23,0.80
2009,11,17,04,24,1.30
2009,11,17,04,25,2.40
2009,11,17,04,26,4.40
2009,11,17,04,27,6.80
2009,11,17,04,28,8.20
2009,11,17,04,29,11.50
2009,11,17,04,30,13.00
2009,11,17,04,31,10.30
2009,11,17,04,32,14.20
2009,11,17,04,33,12.10
2009,11,17,04,34,1.90
2009,11,17,04,35,3.50
2009,11,17,04,36,4.10
2009,11,17,04,37,5.90
2009,11,17,04,38,4.20
2009,11,17,04,39,3.30
2009,11,17,04,40,3.30
2009,11,17,04,41,2.40
2009,11,17,04,42,3.90
2009,11,17,04,43,1.50
2009,11,17,04,44,3.00
2009,11,17,04,45,3.80
2009,11,17,04,46,2.10
2009,11,17,04,47,0.50
2009,11,17,04,48,2.00
2009,11,17,04,49,2.80
2009,11,17,04,50,4.90
2009,11,17,04,51,5.70
2009,11,17,04,52,9.20
2009,11,17,04,53,11.70
2009,11,17,04,54,14.90
2009,11,17,04,55,17.70
2009,11,17,04,56,12.20
2009,11,17,04,57,4.90
2009,11,17,04,58,8.30
2009,11,17,04,59,11.40
2009,11,17,05,00,15.80
2009,11,17,05,01,9.60
2009,11,17,05,02,6.10
2009,11,17,05,03,12.00
2009,11,17,05,04,9.70
2009,11,17,05,05,5.60
2009,11,17,05,06,13.40
2009,11,17,05,07,5.00
2009,11,17,05,08,10.60
2009,11,17,05,09,13.10
2009,11,17,05,10,13.40
2009,11,17,05,11,7.90
2009,11,17,05,12,11.40
2009,11,17,05,13,6.90
2009,11,17,05,14,7.20
2009,11,17,05,15,6.70
2009,11,17,05,16,6.80
2009,11,17,05,17,8.50
2009,11,17,05,18,8.10
2009,11,17,05,19,18.00
2009,11,17,05,20,12.10
2009,11,17,05,21,5.00
2009,11,17,05,22,14.30
2009,11,17,05,23,8.70
2009,11,17,05,24,14.50
2009,11,17,05,25,13.70
2009,11,17,05,26,8.10
2009,11,17,05,27,5.80
2009,11,17,05,28,5.10
2009,11,17,05,29,6.20
2009,11,17,05,30,15.60
2009,11,17,05,31,6.60
2009,11,17,05,32,3.30
2009,11,17,05,33,3.80
2009,11,17,05,34,5.00
2009,11,17,05,35,3.30
2009,11,17,05,36,5.30
2009,11,17,05,37,5.30
2009,11,17,05,38,6.30
2009,11,17,05,39,9.60
2009,11,17,05,40,11.40
2009,11,17,05,41,11.50
2009,11,17,05,42,5.90
2009,11,17,05,43,3.10
2009,11,17,05,44,4.90
2009,11,17,05,45,5.00
2009,11,17,05,46,9.30
2009,11,17,05,47,9.60
2009,11,17,05,48,6.00
2009,11,17,05,49,6.70
2009,11,17,05,50,7.50
2009,11,17,05,51,10.20
2009,11,17,05,52,9.00
2009,11,17,05,53,7.30
2009,11,17,05,54,4.00
2009,11,17,05,55,6.90
2009,11,17,05,56,4.60
2009,11,17,05,57,3.40
2009,11,17,05,58,1.50
2009,11,17,05,59,4.90
2009,11,17,06,00,6.00
2009,11,17,06,01,4.00
2009,11,17,06,02,3.30
2009,11,17,06,03,4.50
2009,11,17,06,04,3.40
2009,11,17,06,05,1.40
2009,11,17,06,06,5.40
2009,11,17,06,07,2.90
2009,11,17,06,08,4.60
2009,11,17,06,09,3.90
2009,11,17,06,10,3.90
2009,11,17,06,11,3.40
2009,11,17,06,12,2.90
2009,11,17,06,13,3.30
2009,11,17,06,14,1.10
2009,11,17,06,15,2.40
2009,11,17,06,16,0.60
2009,11,17,06,17,2.10
2009,11,17,06,18,0.90
2009,11,17,06,19,1.10
2009,11,17,06,20,1.50
2009,11,17,06,21,0.10
2009,11,17,06,22,0.90
2009,11,17,06,23,0.70
2009,11,17,06,24,0.00
2009,11,17,06,25,0.00
2009,11,17,06,26,0.10
2009,11,17,06,27,0.40
2009,11,17,06,28,0.30
2009,11,17,06,29,0.20
2009,11,17,06,30,0.10
2009,11,17,06,31,0.00
2009,11,17,06,32,0.00
2009,11,17,06,33,0.00
2009,11,17,06,34,0.00
2009,11,17,06,35,1.00
2009,11,17,06,36,0.50
2009,11,17,06,37,0.50
2009,11,17,06,38,1.00
2009,11,17,06,39,2.60
2009,11,17,06,40,4.90
2009,11,17,06,41,3.00
2009,11,17,06,42,0.10
2009,11,17,06,43,0.60
2009,11,17,06,44,1.20
2009,11,17,06,45,0.20
2009,11,17,06,46,0.50
2009,11,17,06,47,0.00
2009,11,17,06,48,0.80
2009,11,17,06,49,1.30
2009,11,17,06,50,0.20
2009,11,17,06,51,0.40
2009,11,17,06,52,0.90
2009,11,17,06,53,1.10
2009,11,17,06,54,0.90
2009,11,17,06,55,1.20
2009,11,17,06,56,0.70
2009,11,17,06,57,2.00
2009,11,17,06,58,4.60
2009,11,17,06,59,2.10
2009,11,17,07,00,1.80
2009,11,17,07,01,1.40
2009,11,17,07,02,0.00
2009,11,17,07,03,0.10
2009,11,17,07,04,0.00
2009,11,17,07,05,0.00
2009,11,17,07,06,1.10
2009,11,17,07,07,1.30
2009,11,17,07,08,0.20
2009,11,17,07,09,1.00
2009,11,17,07,10,0.50
2009,11,17,07,11,0.30
2009,11,17,07,12,1.00
2009,11,17,07,13,0.20
2009,11,17,07,14,0.00
2009,11,17,07,15,0.00
2009,11,17,07,16,0.50
2009,11,17,07,17,1.90
2009,11,17,07,18,2.50
2009,11,17,07,19,0.50
2009,11,17,07,20,0.50
2009,11,17,07,21,5.20
2009,11,17,07,22,1.00
2009,11,17,07,23,1.90
2009,11,17,07,24,5.80
2009,11,17,07,25,5.30
2009,11,17,07,26,2.60
2009,11,17,07,27,2.50
2009,11,17,07,28,3.50
2009,11,17,07,29,7.30
2009,11,17,07,30,11.30
2009,11,17,07,31,10.60
2009,11,17,07,32,14.30
2009,11,17,07,33,10.00
2009,11,17,07,34,0.90
2009,11,17,07,35,1.30
2009,11,17,07,36,1.70
2009,11,17,07,37,3.20
2009,11,17,07,38,1.30
2009,11,17,07,39,3.60
2009,11,17,07,40,3.90
2009,11,17,07,41,1.40
2009,11,17,07,42,3.30
2009,11,17,07,43,4.90
2009,11,17,07,44,2.70
2009,11,17,07,45,1.50
2009,11,17,07,46,10.80
2009,11,17,07,47,2.70
2009,11,17,07,48,2.60
2009,11,17,07,49,5.20
2009,11,17,07,50,5.90
2009,11,17,07,51,8.40
2009,11,17,07,52,11.90
2009,11,17,07,53,16.30
2009,11,17,07,54,19.20
2009,11,17,07,55,22.20
2009,11,17,07,56,15.00
2009,11,17,07,57,10.50
2009,11,17,07,58,8.30
2009,11,17,07,59,14.20
2009,11,17,08,00,13.30
2009,11,17,08,01,10.20
2009,11,17,08,02,12.50
2009,11,17,08,03,20.80
2009,11,17,08,04,17.80
2009,11,17,08,05,18.40
2009,11,17,08,06,12.10
2009,11,17,08,07,11.70
2009,11,17,08,08,13.80
2009,11,17,08,09,16.70
2009,11,17,08,10,13.30
2009,11,17,08,11,10.80
2009,11,17,08,12,15.50
2009,11,17,08,13,11.70
2009,11,17,08,14,14.60
2009,11,17,08,15,12.40
2009,11,17,08,16,5.80
2009,11,17,08,17,15.00
2009,11,17,08,18,11.20
2009,11,17,08,19,13.90
2009,11,17,08,20,17.90
2009,11,17,08,21,9.70
2009,11,17,08,22,13.60
2009,11,17,08,23,9.70
2009,11,17,08,24,10.40
2009,11,17,08,25,16.40
2009,11,17,08,26,17.60
2009,11,17,08,27,14.60
2009,11,17,08,28,12.00
2009,11,17,08,29,8.50
2009,11,17,08,30,21.90
2009,11,17,08,31,17.80
2009,11,17,08,32,15.90
2009,11,17,08,33,16.70
2009,11,17,08,34,8.50
2009,11,17,08,35,9.70
2009,11,17,08,36,13.40
2009,11,17,08,37,15.70
2009,11,17,08,38,17.60
2009,11,17,08,39,13.20
2009,11,17,08,40,12.30
2009,11,17,08,41,14.70
2009,11,17,08,42,13.80
2009,11,17,08,43,13.80
2009,11,17,08,44,12.40
2009,11,17,08,45,9.80
2009,11,17,08,46,15.90
2009,11,17,08,47,13.40
2009,11,17,08,48,15.80
2009,11,17,08,49,10.90
2009,11,17,08,50,11.00
2009,11,17,08,51,12.00
2009,11,17,08,52,18.00
2009,11,17,08,53,13.00
2009,11,17,08,54,19.80
2009,11,17,08,55,8.20
2009,11,17,08,56,10.50
2009,11,17,08,57,21.70
2009,11,17,08,58,19.90
2009,11,17,08,59,18.50
2009,11,17,09,00,23.50
2009,11,17,09,01,16.70
2009,11,17,09,02,15.40
2009,11,17,09,03,17.90
2009,11,17,09,04,16.80
2009,11,17,09,05,12.20
2009,11,17,09,06,15.80
2009,11,17,09,07,9.10
2009,11,17,09,08,12.10
2009,11,17,09,09,18.30
2009,11,17,09,10,23.90
2009,11,17,09,11,15.00
2009,11,17,09,12,19.00
2009,11,17,09,13,10.20
2009,11,17,09,14,18.70
2009,11,17,09,15,20.30
2009,11,17,09,16,11.70
2009,11,17,09,17,16.00
2009,11,17,09,18,9.70
2009,11,17,09,19,10.30
2009,11,17,09,20,6.80
2009,11,17,09,21,7.00
2009,11,17,09,22,11.60
2009,11,17,09,23,15.90
2009,11,17,09,24,15.10
2009,11,17,09,25,14.80
2009,11,17,09,26,12.00
2009,11,17,09,27,8.10
2009,11,17,09,28,4.30
2009,11,17,09,29,13.10
2009,11,17,09,30,11.10
2009,11,17,09,31,11.30
2009,11,17,09,32,15.90
2009,11,17,09,33,14.90
2009,11,17,09,34,7.60
2009,11,17,09,35,6.00
2009,11,17,09,36,7.80
2009,11,17,09,37,5.30
2009,11,17,09,38,0.90
2009,11,17,09,39,5.80
2009,11,17,09,40,5.80
2009,11,17,09,41,2.50
2009,11,17,09,42,2.90
2009,11,17,09,43,0.00
2009,11,17,09,44,2.00
2009,11,17,09,45,2.50
2009,11,17,09,46,1.00
2009,11,17,09,47,4.10
2009,11,17,09,48,2.30
2009,11,17,09,49,1.40
2009,11,17,09,50,2.30
2009,11,17,09,51,1.00
2009,11,17,09,52,1.40
2009,11,17,09,53,1.30
2009,11,17,09,54,3.40
2009,11,17,09,55,1.00
2009,11,17,09,56,0.00
2009,11,17,09,57,1.70
2009,11,17,09,58,1.90
2009,11,17,09,59,5.90
2009,11,17,10,00,4.00
2009,11,17,10,01,2.00
2009,11,17,10,02,5.10
2009,11,17,10,03,6.80
2009,11,17,10,04,6.60
2009,11,17,10,05,3.50
2009,11,17,10,06,5.60
2009,11,17,10,07,5.10
2009,11,17,10,08,4.50
2009,11,17,10,09,4.40
2009,11,17,10,10,1.90
2009,11,17,10,11,1.30
2009,11,17,10,12,0.90
2009,11,17,10,13,0.80
2009,11,17,10,14,2.40
2009,11,17,10,15,0.80
2009,11,17,10,16,0.90
2009,11,17,10,17,0.00
2009,11,17,10,18,0.20
2009,11,17,10,19,0.20
2009,11,17,10,20,1.30
2009,11,17,10,21,4.10
2009,11,17,10,22,4.30
2009,11,17,10,23,2.30
2009,11,17,10,24,6.90
2009,11,17,10,25,15.80
2009,11,17,10,26,10.80
2009,11,17,10,27,11.20
2009,11,17,10,28,8.50
2009,11,17,10,29,18.30
2009,11,17,10,30,12.80
2009,11,17,10,31,11.50
2009,11,17,10,32,12.00
2009,11,17,10,33,18.70
2009,11,17,10,34,20.70
2009,11,17,10,35,11.40
2009,11,17,10,36,8.00
2009,11,17,10,37,12.90
2009,11,17,10,38,13.90
2009,11,17,10,39,12.50
2009,11,17,10,40,21.20
2009,11,17,10,41,19.70
2009,11,17,10,42,13.10
2009,11,17,10,43,13.00
2009,11,17,10,44,18.50
2009,11,17,10,45,15.90
2009,11,17,10,46,20.90
2009,11,17,10,47,20.00
2009,11,17,10,48,13.60
2009,11,17,10,49,16.80
2009,11,17,10,50,15.40
2009,11,17,10,51,15.10
2009,11,17,10,52,20.90
2009,11,17,10,53,15.20
2009,11,17,10,54,20.00
2009,11,17,10,55,13.80
2009,11,17,10,56,16.10
2009,11,17,10,57,23.80
2009,11,17,10,58,21.10
2009,11,17,10,59,15.60
2009,11,17,11,00,16.40
2009,11,17,11,01,15.40
2009,11,17,11,02,17.20
2009,11,17,11,03,11.50
2009,11,17,11,04,15.00
2009,11,17,11,05,21.50
2009,11,17,11,06,20.50
2009,11,17,11,07,32.20
2009,11,17,11,08,22.20
2009,11,17,11,09,11.90
2009,11,17,11,10,15.20
2009,11,17,11,11,20.40
2009,11,17,11,12,17.80
2009,11,17,11,13,16.70
2009,11,17,11,14,20.30
2009,11,17,11,15,18.90
2009,11,17,11,16,13.30
2009,11,17,11,17,17.20
2009,11,17,11,18,22.20
2009,11,17,11,19,19.10
2009,11,17,11,20,13.00
2009,11,17,11,21,26.00
2009,11,17,11,22,16.60
2009,11,17,11,23,22.20
2009,11,17,11,24,9.70
2009,11,17,11,25,13.30
2009,11,17,11,26,15.00
2009,11,17,11,27,9.20
2009,11,17,11,28,11.30
2009,11,17,11,29,6.40
2009,11,17,11,30,8.50
2009,11,17,11,31,8.30
2009,11,17,11,32,20.50
2009,11,17,11,33,16.60
2009,11,17,11,34,14.70
2009,11,17,11,35,7.50
2009,11,17,11,36,11.00
2009,11,17,11,37,11.70
2009,11,17,11,38,14.90
2009,11,17,11,39,9.10
2009,11,17,11,40,17.40
2009,11,17,11,41,15.10
2009,11,17,11,42,7.50
2009,11,17,11,43,19.30
2009,11,17,11,44,13.60
2009,11,17,11,45,11.60
2009,11,17,11,46,13.10
2009,11,17,11,47,12.60
2009,11,17,11,48,10.00
2009,11,17,11,49,13.50
2009,11,17,11,50,17.00
2009,11,17,11,51,11.00
2009,11,17,11,52,9.70
2009,11,17,11,53,12.40
2009,11,17,11,54,17.60
2009,11,17,11,55,14.80
2009,11,17,11,56,16.80
2009,11,17,11,57,16.20
2009,11,17,11,58,10.00
2009,11,17,11,59,13.30
2009,11,17,12,00,19.60
2009,11,17,12,01,12.90
2009,11,17,12,02,9.70
2009,11,17,12,03,4.90
2009,11,17,12,04,13.10
2009,11,17,12,05,7.30
2009,11,17,12,06,14.20
2009,11,17,12,07,5.80
2009,11,17,12,08,9.70
2009,11,17,12,09,5.90
2009,11,17,12,10,9.20
2009,11,17,12,11,7.90
2009,11,17,12,12,15.40
2009,11,17,12,13,22.40
2009,11,17,12,14,17.10
2009,11,17,12,15,14.70
2009,11,17,12,16,17.90
2009,11,17,12,17,16.80
2009,11,17,12,18,16.90
2009,11,17,12,19,11.40
2009,11,17,12,20,19.90
2009,11,17,12,21,18.40
2009,11,17,12,22,14.90
2009,11,17,12,23,17.20
2009,11,17,12,24,14.40
2009,11,17,12,25,12.50
2009,11,17,12,26,11.10
2009,11,17,12,27,15.10
2009,11,17,12,28,10.10
2009,11,17,12,29,14.70
2009,11,17,12,30,10.60
2009,11,17,12,31,7.80
2009,11,17,12,32,6.70
2009,11,17,12,33,15.20
2009,11,17,12,34,12.70
2009,11,17,12,35,6.00
2009,11,17,12,36,6.30
2009,11,17,12,37,9.80
2009,11,17,12,38,7.50
2009,11,17,12,39,5.50
2009,11,17,12,40,1.70
2009,11,17,12,41,1.90
2009,11,17,12,42,5.50
2009,11,17,12,43,6.60
2009,11,17,12,44,6.20
2009,11,17,12,45,1.00
2009,11,17,12,46,1.90
2009,11,17,12,47,0.90
2009,11,17,12,48,1.20
2009,11,17,12,49,2.60
2009,11,17,12,50,6.10
2009,11,17,12,51,6.30
2009,11,17,12,52,6.30
2009,11,17,12,53,1.30
2009,11,17,12,54,2.70
2009,11,17,12,55,0.40
2009,11,17,12,56,0.40
2009,11,17,12,57,3.00
2009,11,17,12,58,4.50
2009,11,17,12,59,4.00
2009,11,17,13,00,12.10
2009,11,17,13,01,8.70
2009,11,17,13,02,8.60
2009,11,17,13,03,8.60
2009,11,17,13,04,6.00
2009,11,17,13,05,12.00
2009,11,17,13,06,10.00
2009,11,17,13,07,2.70
2009,11,17,13,08,1.10
2009,11,17,13,09,8.50
2009,11,17,13,10,13.80
2009,11,17,13,11,3.40
2009,11,17,13,12,2.80
2009,11,17,13,13,9.00
2009,11,17,13,14,6.40
2009,11,17,13,15,1.50
2009,11,17,13,16,3.90
2009,11,17,13,17,5.20
2009,11,17,13,18,2.70
2009,11,17,13,19,0.30
2009,11,17,13,20,1.60
2009,11,17,13,21,4.30
2009,11,17,13,22,2.60
2009,11,17,13,23,2.70
2009,11,17,13,24,4.00
2009,11,17,13,25,12.40
2009,11,17,13,26,7.30
2009,11,17,13,27,13.00
2009,11,17,13,28,11.60
2009,11,17,13,29,9.80
2009,11,17,13,30,6.10
2009,11,17,13,31,7.60
2009,11,17,13,32,16.10
2009,11,17,13,33,9.90
2009,11,17,13,34,2.70
2009,11,17,13,35,1.90
2009,11,17,13,36,5.20
2009,11,17,13,37,7.30
2009,11,17,13,38,7.20
2009,11,17,13,39,8.90
2009,11,17,13,40,7.70
2009,11,17,13,41,4.50
2009,11,17,13,42,5.50
2009,11,17,13,43,7.10
2009,11,17,13,44,7.80
2009,11,17,13,45,4.90
2009,11,17,13,46,2.20
2009,11,17,13,47,8.10
2009,11,17,13,48,6.70
2009,11,17,13,49,4.90
2009,11,17,13,50,4.40
2009,11,17,13,51,7.30
2009,11,17,13,52,6.50
2009,11,17,13,53,6.10
2009,11,17,13,54,4.50
2009,11,17,13,55,2.30
2009,11,17,13,56,4.50
2009,11,17,13,57,6.10
2009,11,17,13,58,8.40
2009,11,17,13,59,9.10
2009,11,17,14,00,4.50
2009,11,17,14,01,10.00
2009,11,17,14,02,4.60
2009,11,17,14,03,2.00
2009,11,17,14,04,4.00
2009,11,17,14,05,3.30
2009,11,17,14,06,3.10
2009,11,17,14,07,0.40
2009,11,17,14,08,1.20
2009,11,17,14,09,1.90
2009,11,17,14,10,1.60
2009,11,17,14,11,0.10
2009,11,17,14,12,2.20
2009,11,17,14,13,1.10
2009,11,17,14,14,0.00
2009,11,17,14,15,0.30
2009,11,17,14,16,0.80
2009,11,17,14,17,1.10
2009,11,17,14,18,1.20
2009,11,17,14,19,1.70
2009,11,17,14,20,1.60
2009,11,17,14,21,0.10
2009,11,17,14,22,1.60
2009,11,17,14,23,2.60
2009,11,17,14,24,3.00
2009,11,17,14,25,1.60
2009,11,17,14,26,0.50
2009,11,17,14,27,0.50
2009,11,17,14,28,0.00
2009,11,17,14,29,0.40
2009,11,17,14,30,0.70
2009,11,17,14,31,0.90
2009,11,17,14,32,0.00
2009,11,17,14,33,0.00
2009,11,17,14,34,1.20
2009,11,17,14,35,1.80
2009,11,17,14,36,2.10
2009,11,17,14,37,2.60
2009,11,17,14,38,1.80
2009,11,17,14,39,3.30
2009,11,17,14,40,2.00
2009,11,17,14,41,4.00
2009,11,17,14,42,5.80
2009,11,17,14,43,4.60
2009,11,17,14,44,2.40
2009,11,17,14,45,0.00
2009,11,17,14,46,0.40
2009,11,17,14,47,1.50
2009,11,17,14,48,1.90
2009,11,17,14,49,0.80
2009,11,17,14,50,3.20
2009,11,17,14,51,1.40
2009,11,17,14,52,0.20
2009,11,17,14,53,0.90
2009,11,17,14,54,0.40
2009,11,17,14,55,1.00
2009,11,17,14,56,0.70
2009,11,17,14,57,1.50
2009,11,17,14,58,2.00
2009,11,17,14,59,0.60
2009,11,17,15,00,0.10
2009,11,17,15,01,0.20
2009,11,17,15,02,1.00
2009,11,17,15,03,0.00
2009,11,17,15,04,0.00
2009,11,17,15,05,1.00
2009,11,17,15,06,0.00
2009,11,17,15,07,1.70
2009,11,17,15,08,2.30
2009,11,17,15,09,3.50
2009,11,17,15,10,0.50
2009,11,17,15,11,0.10
2009,11,17,15,12,0.20
2009,11,17,15,13,0.30
2009,11,17,15,14,1.20
2009,11,17,15,15,0.30
2009,11,17,15,16,0.60
2009,11,17,15,17,1.10
2009,11,17,15,18,3.40
2009,11,17,15,19,1.70
2009,11,17,15,20,3.00
2009,11,17,15,21,1.00
2009,11,17,15,22,1.50
2009,11,17,15,23,4.10
2009,11,17,15,24,3.80
2009,11,17,15,25,0.50
2009,11,17,15,26,0.70
2009,11,17,15,27,0.80
2009,11,17,15,28,0.90
2009,11,17,15,29,0.00
2009,11,17,15,30,0.30
2009,11,17,15,31,0.00
2009,11,17,15,32,0.00
2009,11,17,15,33,0.00
2009,11,17,15,34,0.10
2009,11,17,15,35,0.00
2009,11,17,15,36,0.00
2009,11,17,15,37,0.00
2009,11,17,15,38,0.00
2009,11,17,15,39,0.00
2009,11,17,15,40,0.00
2009,11,17,15,41,0.00
2009,11,17,15,42,0.10
2009,11,17,15,43,0.00
2009,11,17,15,44,0.00
2009,11,17,15,45,0.00
2009,11,17,15,46,0.40
2009,11,17,15,47,0.10
2009,11,17,15,48,0.40
2009,11,17,15,49,0.70
2009,11,17,15,50,1.10
2009,11,17,15,51,0.70
2009,11,17,15,52,1.40
2009,11,17,15,53,2.30
2009,11,17,15,54,6.40
2009,11,17,15,55,2.30
2009,11,17,15,56,1.10
2009,11,17,15,57,4.60
2009,11,17,15,58,2.70
2009,11,17,15,59,4.40
2009,11,17,16,00,4.00
2009,11,17,16,01,6.00
2009,11,17,16,02,4.70
2009,11,17,16,03,5.00
2009,11,17,16,04,3.50
2009,11,17,16,05,3.80
2009,11,17,16,06,5.00
2009,11,17,16,07,6.30
2009,11,17,16,08,1.90
2009,11,17,16,09,4.20
2009,11,17,16,10,1.30
2009,11,17,16,11,4.50
2009,11,17,16,12,6.30
2009,11,17,16,13,2.50
2009,11,17,16,14,1.50
2009,11,17,16,15,3.50
2009,11,17,16,16,1.90
2009,11,17,16,17,0.90
2009,11,17,16,18,0.90
2009,11,17,16,19,1.20
2009,11,17,16,20,0.20
2009,11,17,16,21,2.10
2009,11,17,16,22,2.70
2009,11,17,16,23,3.00
2009,11,17,16,24,2.40
2009,11,17,16,25,1.80
2009,11,17,16,26,1.90
2009,11,17,16,27,5.40
2009,11,17,16,28,3.70
2009,11,17,16,29,1.50
2009,11,17,16,30,2.30
2009,11,17,16,31,2.10
2009,11,17,16,32,1.70
2009,11,17,16,33,0.60
2009,11,17,16,34,0.50
2009,11,17,16,35,0.80
2009,11,17,16,36,0.90
2009,11,17,16,37,1.70
2009,11,17,16,38,1.20
2009,11,17,16,39,0.60
2009,11,17,16,40,0.30
2009,11,17,16,41,0.10
2009,11,17,16,42,0.20
2009,11,17,16,43,2.70
2009,11,17,16,44,3.30
2009,11,17,16,45,0.00
2009,11,17,16,46,0.00
2009,11,17,16,47,0.10
2009,11,17,16,48,0.10
2009,11,17,16,49,0.20
2009,11,17,16,50,0.00
2009,11,17,16,51,0.00
2009,11,17,16,52,0.10
2009,11,17,16,53,1.10
2009,11,17,16,54,0.20
2009,11,17,16,55,0.40
2009,11,17,16,56,0.30
2009,11,17,16,57,0.10
2009,11,17,16,58,0.00
2009,11,17,16,59,0.00
2009,11,17,17,00,0.00
2009,11,17,17,01,0.00
2009,11,17,17,02,0.00
2009,11,17,17,03,0.00
2009,11,17,17,04,0.00
2009,11,17,17,05,0.00
2009,11,17,17,06,0.00
2009,11,17,17,07,0.00
2009,11,17,17,08,0.00
2009,11,17,17,09,0.00
2009,11,17,17,10,0.50
2009,11,17,17,11,0.10
2009,11,17,17,12,0.50
2009,11,17,17,13,0.70
2009,11,17,17,14,0.10
2009,11,17,17,15,0.80
2009,11,17,17,16,0.10
2009,11,17,17,17,0.00
2009,11,17,17,18,0.00
2009,11,17,17,19,0.20
2009,11,17,17,20,1.50
2009,11,17,17,21,0.60
2009,11,17,17,22,3.80
2009,11,17,17,23,5.10
2009,11,17,17,24,2.20
2009,11,17,17,25,0.40
2009,11,17,17,26,1.20
2009,11,17,17,27,2.70
2009,11,17,17,28,6.00
2009,11,17,17,29,4.00
2009,11,17,17,30,4.90
2009,11,17,17,31,5.30
2009,11,17,17,32,2.70
2009,11,17,17,33,5.60
2009,11,17,17,34,6.70
2009,11,17,17,35,4.10
2009,11,17,17,36,6.00
2009,11,17,17,37,4.70
2009,11,17,17,38,4.80
2009,11,17,17,39,3.40
2009,11,17,17,40,3.80
2009,11,17,17,41,3.60
2009,11,17,17,42,3.30
2009,11,17,17,43,3.40
2009,11,17,17,44,0.80
2009,11,17,17,45,1.30
2009,11,17,17,46,2.10
2009,11,17,17,47,2.50
2009,11,17,17,48,1.20
2009,11,17,17,49,4.80
2009,11,17,17,50,7.70
2009,11,17,17,51,5.30
2009,11,17,17,52,3.80
2009,11,17,17,53,3.80
2009,11,17,17,54,6.10
2009,11,17,17,55,2.40
2009,11,17,17,56,2.50
2009,11,17,17,57,1.60
2009,11,17,17,58,4.40